Home   Weather   Narva   Past weeks

Flag for Estonia Past Weather in Narva, Estonia — Yesterday and Last 2 Weeks

Now
28 °F

Light snow. Overcast.


Feels Like: 28 °F
Forecast: 26 / 29 °F
Wind: 2 mph from North

Location: Narva

Current Time: Dec 3, 2016 at 2:38:07 am

Latest Report: Dec 3, 2016 at 1:00 am


Visibility: 5 mi

Pressure: 29.65 "Hg

Humidity: 97%

Dew Point: 28 °F

Location of NarvaLocation

Past Weather in Narva — Graph

°F

Narva Temperature Yesterday

Maximum temperature yesterday: 29 °F (at 11:00 am)
Minimum temperature yesterday: 26 °F (at 10:00 pm)
Average temperature yesterday: 27 °F

High & Low Weather Summary for the Past Weeks

 TemperatureHumidityPressure
High45 °F (Nov 20, 11:00 am)100% (Nov 18, 6:00 am)30.27 "Hg (Nov 18, 6:00 am)
Low19 °F (Nov 29, 8:00 pm)72% (Nov 28, 5:00 pm)29.00 "Hg (Nov 27, 2:00 am)
Average33 °F92%29.77 "Hg
* Reported Nov 18 1:00 am — Dec 3 1:00 am, Narva, Weather by CustomWeather, © 2016

Note: Actual official high and low records may vary slightly from our data, if they occured in-between our weather recording intervals... More about our weather records

Advertising

Narva Weather History for the Previous 24 Hours

Scroll right to see more
 ConditionsComfort  
Time TempWeatherWind HumidityBarometerVisibility
1:00 am
Sat, Dec 3
28 °FLight snow. Overcast.2 mph97%29.65 "Hg5 mi
12:00 am28 °FLight snow. Overcast.1 mph97%29.64 "Hg5 mi
11:00 pm
Fri, Dec 2
26 °FLight snow. Overcast.2 mph96%29.64 "Hg4 mi
10:00 pm26 °FLight snow. Overcast.2 mph96%29.63 "Hg2 mi
9:00 pm27 °FSnow flurries. Overcast.2 mph93%29.63 "Hg12 mi
8:00 pm27 °FSnow flurries. Overcast.3 mph91%29.63 "Hg12 mi
7:00 pm27 °FSnow flurries. Overcast.3 mph90%29.63 "Hg12 mi
6:00 pm27 °FSnow flurries. Overcast.2 mph90%29.63 "Hg12 mi
5:00 pm27 °FFog.2 mph89%29.62 "Hg4 mi
4:00 pm27 °FFog.1 mph89%29.61 "Hg4 mi
3:00 pm27 °FFog.1 mph86%29.59 "Hg5 mi
2:00 pm28 °FChilly.1 mph86%29.58 "Hg11 mi
1:00 pm28 °FChilly.1 mph84%29.57 "Hg12 mi
12:00 pm28 °FChilly.2 mph83%29.56 "Hg12 mi
11:00 am29 °FChilly.1 mph84%29.55 "Hg12 mi
10:00 am28 °FChilly.2 mph88%29.50 "Hg12 mi
9:00 am28 °FChilly.1 mph88%29.50 "Hg12 mi
8:00 am28 °FChilly.1 mph87%29.47 "Hg12 mi
7:00 am28 °FChilly.1 mph88%29.44 "Hg12 mi
6:00 am28 °FSnow flurries. Overcast.2 mph90%29.44 "Hg12 mi
5:00 am28 °FLight snow. Overcast.1 mph93%29.41 "Hg4 mi
4:00 am28 °FSnow flurries. Overcast.2 mph90%29.41 "Hg11 mi
3:00 am28 °FLight snow. Overcast.3 mph91%29.41 "Hg12 mi
2:00 am27 °FLight snow. Overcast.3 mph97%29.38 "Hg9 mi
Weather by CustomWeather, © 2016

See weather overviewHow to use our weather pages